Drummond Island, MI

9:23 PM EDT on May 24, 2017 (GMT -0400)
Drummond Island

Weather History for KDRM - October, 2012

Change the Weather History Date:

Monday, October 15, 2012

  Actual Average (KCIU) Record (KCIU)
Temperature  
Mean Temperature 42 °F -  
Max Temperature 46 °F 52 °F 64 °F (2016)
Min Temperature 38 °F 34 °F 18 °F (1978)
Degree Days  
Heating Degree Days 23    
Moisture  
Dew Point 37 °F    
Average Humidity 84    
Maximum Humidity 100    
Minimum Humidity 67    
Precipitation  
Precipitation 0.00 in - - ()
Sea Level Pressure  
Sea Level Pressure 29.62 in    
Wind  
Wind Speed 9 mph (NNW)    
Max Wind Speed 15 mph    
Max Gust Speed 25 mph    
Visibility 8 miles    
Events Rain    
Averages and records for this station are not official NWS values.
T = Trace of Precipitation, MM = Missing Value Source: NWS Daily Summary

Daily Weather History Graph

Daily Weather History Graph

Search for Another Location

Airport or City:

Trip Planner

Search our weather history database for the weather conditions in past years. The results will help you decide how hot, cold, wet, or windy it might be!

Date:

Astronomy

Oct. 15, 2012 Rise Set
Actual Time 7:52 AM EDT 6:47 PM EDT
Civil Twilight 7:22 AM EDT 7:18 PM EDT
Nautical Twilight 6:47 AM EDT 7:52 PM EDT
Astronomical Twilight 6:13 AM EDT 8:27 PM EDT
Moon 8:04 AM EDT (10/15) 6:42 PM EDT (10/15)
Length of Visible Light 11h 55m
Length of Day
10h 55m
New Moon, 0% of the Moon is Illuminated
Oct 15
New Moon
Oct 21
First Quarter
Oct 29
Full
Nov 6
Last Quarter
Nov 13
New

Hourly Weather History & Observations

Time (EDT) Temp. Windchill Dew Point Humidity Pressure Visibility Wind Dir Wind Speed Gust Speed Precip Events Conditions
12:15 AM 43.9 °F 38.3 °F 43.7 °F 99% 29.28 in 7.0 mi North 10.4 mph - N/A Rain Rain
12:35 AM 43.7 °F 38.1 °F 43.3 °F 99% 29.28 in 4.0 mi North 10.4 mph 16.1 mph N/A Rain Light Rain
12:56 AM 43.2 °F 37.4 °F 43.0 °F 99% 29.28 in 5.0 mi North 10.4 mph 16.1 mph N/A   Drizzle
1:15 AM 42.8 °F 36.6 °F 42.8 °F 100% 29.28 in 5.0 mi North 11.5 mph 18.4 mph N/A   Drizzle
1:35 AM 42.8 °F 36.2 °F 42.8 °F 100% 29.29 in 4.0 mi North 12.7 mph 19.6 mph N/A   Heavy Drizzle
1:56 AM 42.3 °F 35.5 °F 42.1 °F 99% 29.30 in 4.0 mi NNW 12.7 mph 19.6 mph N/A Rain Heavy Rain
2:15 AM 41.9 °F 35.9 °F 41.9 °F 100% 29.30 in 4.0 mi North 10.4 mph 17.3 mph N/A Rain Light Rain
2:35 AM 41.9 °F 36.3 °F 41.4 °F 98% 29.30 in 4.0 mi NNW 9.2 mph 19.6 mph N/A Rain Light Rain
2:56 AM 41.5 °F 37.1 °F 41.2 °F 99% 29.31 in 3.0 mi NNW 6.9 mph 25.3 mph N/A   Heavy Drizzle
3:15 AM 41.4 °F 35.2 °F 41.2 °F 99% 29.32 in 3.0 mi NNW 10.4 mph 17.3 mph N/A Rain Rain
3:35 AM 41.2 °F 35.0 °F 41.0 °F 99% 29.33 in 4.0 mi NNW 10.4 mph 18.4 mph N/A Rain Heavy Rain
3:56 AM 40.6 °F 34.3 °F 40.1 °F 98% 29.35 in 4.0 mi NNW 10.4 mph 17.3 mph N/A Rain Rain
4:15 AM 40.1 °F 34.1 °F 39.2 °F 97% 29.36 in 4.0 mi NNW 9.2 mph 20.7 mph N/A   Drizzle
4:36 AM 39.7 °F 34.3 °F 39.2 °F 98% 29.38 in 4.0 mi NW 8.1 mph - N/A   Drizzle
4:55 AM 39.4 °F 33.8 °F 39.0 °F 99% 29.39 in 3.0 mi NNW 8.1 mph - N/A Rain Rain
5:15 AM 39.4 °F 32.7 °F 38.7 °F 97% 29.41 in 4.0 mi NW 10.4 mph 18.4 mph N/A Rain Light Rain
5:55 AM 38.5 °F 31.6 °F 37.4 °F 96% 29.43 in 5.0 mi NNW 10.4 mph 23.0 mph N/A Rain Rain
6:15 AM 38.3 °F 29.7 °F 37.0 °F 95% 29.45 in 4.0 mi NNW 15.0 mph 25.3 mph N/A Rain Rain
6:36 AM 38.3 °F 31.9 °F 37.0 °F 95% 29.46 in 7.0 mi NW 9.2 mph 25.3 mph N/A Rain Rain
6:55 AM 38.3 °F 29.7 °F 37.2 °F 96% 29.47 in 5.0 mi NNW 15.0 mph 25.3 mph N/A Rain Light Rain
7:15 AM 38.5 °F 30.7 °F 37.4 °F 96% 29.48 in 3.0 mi NNW 12.7 mph 21.9 mph N/A Rain Rain
7:36 AM 38.8 °F 31.6 °F 37.8 °F 96% 29.49 in 4.0 mi NNW 11.5 mph 19.6 mph N/A Rain Rain
8:15 AM 38.7 °F 32.4 °F 37.0 °F 94% 29.51 in 10.0 mi NNW 9.2 mph 23.0 mph N/A Rain Light Rain
8:35 AM 38.8 °F 32.1 °F 37.2 °F 94% 29.53 in 10.0 mi NNW 10.4 mph 24.2 mph N/A Rain Light Rain
8:55 AM 39.2 °F 32.5 °F 37.0 °F 92% 29.55 in 10.0 mi NW 10.4 mph 21.9 mph N/A Rain Light Rain
9:16 AM 39.2 °F 33.0 °F 37.4 °F 93% 29.57 in 10.0 mi NNW 9.2 mph 19.6 mph N/A Rain Light Rain
9:35 AM 39.2 °F 32.0 °F 37.4 °F 93% 29.58 in 7.0 mi NW 11.5 mph 20.7 mph N/A Rain Light Rain
9:55 AM 39.4 °F 32.7 °F 37.9 °F 95% 29.59 in 10.0 mi NW 10.4 mph 16.1 mph N/A Rain Light Rain
10:16 AM 39.7 °F 33.7 °F 38.3 °F 95% 29.61 in 10.0 mi NW 9.2 mph 18.4 mph N/A Rain Light Rain
10:35 AM 40.1 °F 34.1 °F 38.1 °F 93% 29.62 in 10.0 mi NW 9.2 mph 23.0 mph N/A Rain Light Rain
10:55 AM 40.1 °F 34.7 °F 38.3 °F 93% 29.63 in 10.0 mi NW 8.1 mph 19.6 mph N/A Rain Light Rain
11:15 AM 40.1 °F 33.2 °F 38.5 °F 94% 29.64 in 10.0 mi NW 11.5 mph 19.6 mph N/A Rain Light Rain
11:35 AM 40.5 °F 34.1 °F 38.7 °F 93% 29.65 in 10.0 mi NW 10.4 mph 21.9 mph N/A Rain Light Rain
11:56 AM 40.6 °F 35.4 °F 38.5 °F 92% 29.66 in 10.0 mi NW 8.1 mph 19.6 mph N/A Rain Rain
12:15 PM 41.0 °F 34.3 °F 39.0 °F 93% 29.67 in 10.0 mi NW 11.5 mph 17.3 mph N/A   Drizzle
12:35 PM 41.4 °F 35.7 °F 39.2 °F 92% 29.67 in 10.0 mi NW 9.2 mph 18.4 mph N/A   Drizzle
12:55 PM 41.9 °F 35.4 °F 39.2 °F 90% 29.68 in 10.0 mi NW 11.5 mph 16.1 mph N/A   Drizzle
1:15 PM 42.8 °F 38.6 °F 38.8 °F 86% 29.68 in 10.0 mi NNW 6.9 mph 18.4 mph N/A   Overcast
1:36 PM 44.1 °F 38.6 °F 39.2 °F 83% 29.69 in 10.0 mi NW 10.4 mph 17.3 mph N/A   Overcast
1:55 PM 43.9 °F 38.8 °F 37.6 °F 78% 29.70 in 10.0 mi NW 9.2 mph 21.9 mph N/A   Overcast
2:15 PM 44.1 °F 37.7 °F 37.4 °F 77% 29.70 in 10.0 mi NW 12.7 mph 20.7 mph N/A   Overcast
2:36 PM 45.5 °F 40.3 °F 37.9 °F 75% 29.70 in 10.0 mi NW 10.4 mph 17.3 mph N/A   Mostly Cloudy
2:55 PM 45.0 °F 40.6 °F 37.4 °F 75% 29.71 in 10.0 mi NNW 8.1 mph 18.4 mph N/A   Mostly Cloudy
3:16 PM 46.6 °F - 37.4 °F 70% 29.71 in 10.0 mi NW 10.4 mph 21.9 mph N/A   Overcast
3:35 PM 46.4 °F 41.9 °F 36.5 °F 68% 29.73 in 10.0 mi NNW 9.2 mph 18.4 mph N/A   Overcast
3:55 PM 46.6 °F - 36.7 °F 68% 29.74 in 10.0 mi NW 10.4 mph 17.3 mph N/A   Overcast
4:16 PM 45.9 °F 41.2 °F 36.5 °F 70% 29.75 in 10.0 mi NW 9.2 mph 17.3 mph N/A   Overcast
4:35 PM 45.5 °F 42.5 °F 36.0 °F 69% 29.76 in 10.0 mi NNW 5.8 mph - N/A   Overcast
4:55 PM 45.0 °F 40.6 °F 34.7 °F 67% 29.76 in 10.0 mi NNW 8.1 mph 16.1 mph N/A   Overcast
5:15 PM 45.1 °F 41.4 °F 34.7 °F 67% 29.77 in 10.0 mi NW 6.9 mph - N/A   Overcast
5:35 PM 45.0 °F 42.6 °F 36.0 °F 71% 29.77 in 10.0 mi NW 4.6 mph - N/A   Overcast
5:56 PM 44.8 °F 40.4 °F 34.5 °F 67% 29.79 in 10.0 mi NNW 8.1 mph - N/A   Overcast
6:15 PM 44.6 °F 43.1 °F 34.9 °F 69% 29.80 in 10.0 mi NNW 3.5 mph - N/A   Overcast
6:35 PM 43.2 °F 40.5 °F 34.2 °F 71% 29.80 in 10.0 mi NNW 4.6 mph - N/A   Mostly Cloudy
6:56 PM 43.2 °F 41.5 °F 34.9 °F 73% 29.81 in 10.0 mi NNW 3.5 mph - N/A   Mostly Cloudy
7:15 PM 43.9 °F 40.5 °F 34.7 °F 70% 29.82 in 10.0 mi NW 5.8 mph - N/A   Overcast
7:35 PM 43.7 °F 41.1 °F 35.4 °F 73% 29.83 in 10.0 mi NNW 4.6 mph - N/A   Overcast
7:56 PM 43.3 °F 39.9 °F 34.9 °F 72% 29.84 in 10.0 mi NNW 5.8 mph - N/A   Overcast
8:15 PM 42.6 °F 39.0 °F 33.3 °F 69% 29.84 in 10.0 mi North 5.8 mph - N/A   Overcast
8:35 PM 42.4 °F 38.8 °F 32.4 °F 68% 29.85 in 10.0 mi NNW 5.8 mph - N/A   Overcast
8:56 PM 42.3 °F 37.9 °F 32.5 °F 68% 29.86 in 10.0 mi NNW 6.9 mph - N/A   Overcast
9:15 PM 41.9 °F 38.2 °F 31.8 °F 67% 29.86 in 10.0 mi North 5.8 mph - N/A   Overcast
9:36 PM 41.2 °F 37.3 °F 32.0 °F 70% 29.87 in 10.0 mi North 5.8 mph - N/A   Overcast
9:55 PM 40.6 °F 38.6 °F 32.0 °F 71% 29.87 in 10.0 mi NNW 3.5 mph - N/A   Overcast
10:15 PM 40.6 °F - 32.4 °F 72% 29.87 in 10.0 mi Calm Calm - N/A   Overcast
10:36 PM 41.0 °F - 32.2 °F 71% 29.88 in 10.0 mi Calm Calm - N/A   Overcast
10:55 PM 41.0 °F 38.0 °F 32.0 °F 70% 29.88 in 10.0 mi North 4.6 mph - N/A   Overcast
11:15 PM 41.5 °F - 32.0 °F 69% 29.89 in 10.0 mi Calm Calm - N/A   Overcast
11:36 PM 41.0 °F - 32.2 °F 71% 29.89 in 10.0 mi Calm Calm - N/A   Overcast
11:55 PM 40.6 °F - 32.0 °F 71% 29.90 in 10.0 mi Calm Calm - N/A   Overcast